Location: Gollag?dem
(16.8053°N, 80.8024°E)
Time: 14:28:11
(UTC+00:00)

GPS 2-18 Rocket1 - Pass Details

Date: 13 August 2020
Orbit: 459 x 515 km, 20.9° (Epoch: 24 September)

Event Time Altitude Azimuth Distance (km) Brightness Sun altitude
Exits shadow 23:02:13 37° 192° (SSW) 742 3.7 -18.5°
Drops below altitude 10° 23:05:29 10° 130° (SE) 1,601 6.0 -17.8°
Sets 23:07:45 0° 122° (ESE) 2,467 7.2 -17.3°
